sat.trackr.live / text

‹ back to catalog

STARLINK-36924

NORAD 68054 · 2026-041Q

PAYLOAD ACTIVE UNKNOWN

§ Identity

Operator
Country
US
Launch date
2026-03-02
Launch site
AFETR
Launch vehicle
Mass (kg)
RCS (m²)

Purposes: comms

External: N2YO · Heavens-Above · Gunter

§ Orbital elements

Epoch: 2026-05-25T03:09:18.794592Z

Period
93.85 min
Inclination
53.1600°
Eccentricity
0.0001180
Mean motion
15.34398737 rev/d
Perigee alt
461.9 km
Apogee alt
463.5 km
Semi-major
6,840.8 km
B*
3.7086e-4
RAAN
53.2860°
Arg perigee
97.5536°
Mean anomaly
262.5600°
Rev number
1,311

§ Raw data

STARLINK-369241 68054U 26041Q   26145.13146753  .00012174  00000+0  37086-3 0  99952 68054  53.1600  53.2860 0001180  97.5536 262.5600 15.34398737 13116

JSON: /api/v1/satellites/68054 · /tle

For live sub-satellite position, see the globe view (requires WebGL).

§ Visibility from observer

Set your observer location to see the next 7 days of passes ≥ 10°. The values pass through the URL so the page stays shareable.

No JS? Fill the form by hand. The geolocation button needs JavaScript.